TimeEDT,TemperatureF,Dew PointF,Humidity,Sea Level PressureIn,VisibilityMPH,Wind Direction,Wind SpeedMPH,Gust SpeedMPH,PrecipitationIn,Events,Conditions,WindDirDegrees,DateUTC
12:54 AM,57.9,42.1,56,29.75,10.0,WSW,6.9,-,N/A,,Scattered Clouds,250,2013-05-16 04:54:00
1:54 AM,57.9,43.0,58,29.75,10.0,NW,5.8,-,N/A,,Partly Cloudy,320,2013-05-16 05:54:00
2:54 AM,52.0,44.1,74,29.75,10.0,WSW,8.1,-,N/A,,Scattered Clouds,240,2013-05-16 06:54:00
3:54 AM,52.0,44.1,74,29.75,10.0,WSW,3.5,-,N/A,,Scattered Clouds,250,2013-05-16 07:54:00
4:54 AM,50.0,44.1,80,29.75,10.0,WSW,5.8,-,N/A,,Mostly Cloudy,240,2013-05-16 08:54:00
5:54 AM,51.1,45.0,80,29.76,10.0,WSW,5.8,-,N/A,,Mostly Cloudy,240,2013-05-16 09:54:00
6:54 AM,53.1,46.9,80,29.78,10.0,SW,6.9,-,N/A,,Scattered Clouds,230,2013-05-16 10:54:00
7:54 AM,60.1,48.0,64,29.78,10.0,WSW,9.2,-,N/A,,Partly Cloudy,240,2013-05-16 11:54:00
8:54 AM,66.9,46.9,49,29.79,10.0,West,9.2,-,N/A,,Partly Cloudy,260,2013-05-16 12:54:00
9:54 AM,71.1,43.0,36,29.79,10.0,WNW,12.7,19.6,N/A,,Partly Cloudy,300,2013-05-16 13:54:00
10:54 AM,73.0,41.0,31,29.79,10.0,WNW,16.1,25.3,N/A,,Partly Cloudy,290,2013-05-16 14:54:00
11:54 AM,73.9,43.0,33,29.78,10.0,WNW,15.0,28.8,N/A,,Partly Cloudy,290,2013-05-16 15:54:00
12:54 PM,75.0,44.1,33,29.78,10.0,West,21.9,26.5,N/A,,Partly Cloudy,260,2013-05-16 16:54:00
1:54 PM,75.9,43.0,31,29.78,10.0,WNW,18.4,28.8,N/A,,Partly Cloudy,290,2013-05-16 17:54:00
2:54 PM,75.0,37.9,26,29.79,10.0,WNW,21.9,34.5,N/A,,Partly Cloudy,300,2013-05-16 18:54:00
3:54 PM,75.0,36.0,24,29.79,10.0,West,20.7,31.1,N/A,,Partly Cloudy,270,2013-05-16 19:54:00
4:54 PM,73.9,36.0,25,29.81,10.0,WNW,19.6,29.9,N/A,,Partly Cloudy,290,2013-05-16 20:54:00
5:54 PM,73.4,33.8,23,29.82,10.0,WNW,16.1,31.1,N/A,,Partly Cloudy,300,2013-05-16 21:54:00
6:54 PM,66.0,37.0,34,29.88,10.0,NNW,15.0,25.3,N/A,,Partly Cloudy,330,2013-05-16 22:54:00
7:54 PM,62.1,39.0,43,29.91,10.0,NW,15.0,24.2,N/A,,Partly Cloudy,320,2013-05-16 23:54:00
8:54 PM,59.0,39.0,48,29.94,10.0,NW,11.5,-,N/A,,Clear,320,2013-05-17 00:54:00
9:54 PM,55.9,39.0,53,29.97,10.0,NW,6.9,-,N/A,,Clear,320,2013-05-17 01:54:00
10:54 PM,54.0,39.9,59,30.00,10.0,NW,8.1,-,N/A,,Clear,310,2013-05-17 02:54:00
11:54 PM,53.1,39.9,61,30.02,10.0,NNW,8.1,-,N/A,,Clear,330,2013-05-17 03:54:00